C/1998 M2 ( LINEAR )

Japanese version
Home page
Updated on December 31, 2016

---------------------------------------------------------------------

* Profile

Discovery Date June 19, 1998
Magnitude 16.9 mag
Discoverer Lincoln Laboratory Near-Earth Asteroid Research project

* Pictures

* Orbital Elements

   The following improved orbital elements by Kenji Muraoka, are 
  from 357 observations 1998 May 28 to 1999 Aug. 12, perturbations
  by 9 Planets, Moon and 5 minor planets were taken into account.
   The mean residual is +/- 0.62 arc seconds.

      Epoch  =  1998 Aug. 15.0  TT       JDT = 2451040.5
          T  =  1998 Aug. 13.17111       +/- 0.00055 (m.e.) TT
       Peri. =   37.24261                +/- 0.00017
       Node  =  260.88023                +/- 0.00011   (2000.0)
       Incl. =   60.18235                +/- 0.00005
          q  =    2.7253289              +/- 0.0000036 AU
          e  =    0.9977532              +/- 0.0000053
        1/a  =   +0.0008244              +/- 0.0000020 1/AU
        ( P  =  42246 years )
  orig. 1/a  =   +0.001223 
  fut.  1/a  =   +0.001871 

* Finding Charts

* Magnitudes Graph

        m1 = 8.0 + 5 log d + 10.0 log r

---------------------------------------------------------------------

The orbital elements are calculated by Kenji Muraoka.
The charts are made with StellaNavigator Ver.2.0 for Windows (AstroArts / ASCII).
The magnitudes graphs are made with Comet for Windows.

---------------------------------------------------------------------

Copyright(C) Seiichi Yoshida (comet@aerith.net). All rights reserved.